Terminal Aerodrome Forecast
Issued by NWS

Home | Current Version | Previous Version | Text Only | Print | Product List | Glossary On
Versions: 1 2 3 4 5 6 7 8 9 10 11 12
000
FTUS44 KJAN 310006
TAFGTR

TAF
KGTR 302320Z 3100/3124 02004KT P6SM BKN200
     FM311200 36004KT P6SM BKN150
     FM311800 04005KT P6SM VCSH BKN080=

USA.gov is the U.S. government's official web portal to all federal, state and local government web resources and services.